Current weather by "City, St" or "zip code"  
 

Current Conditions: Topeka, Forbes Field, KS

Overcast


38.0 F

Last Updated on Oct 24 2020, 11:53 am CDT
Humidity: 73%
Wind Speed: E 6.9 mph
Barometer 30.22 in
Dewpoint: 30.0 F
Visibility: 10.00 mi
Precip: --
Heat Index: NA
Wind Chill: 33 F
Current conditions at:

Topeka, Forbes Field, KS (KFOE)

Lat: 38.94139 Lon: 95.65056

Local Radar Image active severe weather and emergency alerts image image weather storm and storm spotter reports image weather observation monitoring service image
Local
Radar
Active
Alerts
Storm Reports Obs
Monitoring

Sign-up For Email & Text Message Weather Alert Notification Services



Advertise Here

Observation History for Topeka, Forbes Field, KS


Time Wind
(mph)
Vis
(mi)
Weather Precip (in) Temperature (F) Relative
Humidity
Wind
Chill
(F)
Heat
Index
(F)
Pressure
Air Dwpt altimeter
(in)
sea level
(mb)
Rmks
11:53 am CDT E 6.9 10.00 Overcast -- 38.0 30.0 73% 33 NA 30.22 1024.2
10:53 am CDT E 9.2 10.00 Overcast -- 38.0 30.0 73% 32 NA 30.24 1024.6
9:53 am CDT E 9.2 10.00 Overcast -- 37.0 28.9 73% 30 NA 30.25 1025.0
8:53 am CDT E 8.1 10.00 Overcast -- 37.0 28.9 73% 31 NA 30.26 1025.2
7:53 am CDT NE 6.9 10.00 Overcast -- 36.0 28.0 73% 30 NA 30.26 1025.5
6:53 am CDT E 6.9 10.00 Overcast -- 36.0 28.9 76% 30 NA 30.28 1025.9
5:53 am CDT NE 5.8 10.00 Overcast -- 36.0 28.0 73% 31 NA 30.28 1025.9
4:53 am CDT E 6.9 10.00 Overcast -- 36.0 28.0 73% 30 NA 30.29 1026.4
3:53 am CDT E 5.8 10.00 Overcast -- 37.0 28.9 73% 32 NA 30.32 1027.2
2:53 am CDT N 5.8 10.00 Overcast -- 37.0 28.9 73% 32 NA 30.34 1027.9
1:53 am CDT NE 5.8 10.00 Overcast -- 37.0 28.9 73% 32 NA 30.34 1028.1
12:53 am CDT N 6.9 10.00 Overcast -- 37.0 28.9 73% 32 NA 30.35 1028.5
11:53 pm CDT N 8.1 10.00 Overcast -- 38.0 28.9 70% 32 NA 30.38 1029.3
10:53 pm CDT N 11.5 10.00 Overcast -- 38.0 28.0 68% 31 NA 30.39 1029.8
9:53 pm CDT N 10.4 10.00 Overcast -- 39.0 28.9 67% 32 NA 30.39 1029.7
8:53 pm CDT N 11.5 G 19.6 10.00 Overcast -- 40.0 28.9 65% 33 NA 30.38 1029.4
7:53 pm CDT N 16.1 G 21.9 10.00 Overcast -- 40.0 30.0 68% 32 NA 30.37 1029.1
6:53 pm CDT N 11.5 G 19.6 10.00 Overcast -- 41.0 30.0 65% 34 NA 30.35 1028.4
5:53 pm CDT N 12.7 G 20.7 10.00 Overcast -- 42.0 32.0 68% 35 NA 30.34 1027.9
4:53 pm CDT N 15.0 10.00 Overcast -- 42.0 32.0 68% 34 NA 30.33 1027.7
3:53 pm CDT N 16.1 G 24.2 10.00 Overcast -- 42.0 32.0 68% 34 NA 30.33 1027.6
2:53 pm CDT N 15.0 G 24.2 10.00 Overcast -- 43.0 33.1 68% 36 NA 30.32 1027.1
1:53 pm CDT N 18.4 G 28.8 10.00 Overcast -- 43.0 34.0 71% 35 NA 30.32 1027.3

Regional Weather Observation


Lawrence, Lawrence Municipal Airport, KS (KLWC)

Overcast
41.0 F

Topeka, Forbes Field, KS (KFOE)

Overcast
38.0 F

Manhattan, Manhattan Municipal Airport, KS (KMHK)

Overcast
37.0 F

Fort Riley - Marshall AAF, KS (KFRI)

Overcast
38.0 F

Emporia, Emporia Municipal Airport, KS (KEMP)

Overcast
39.0 F

Kansas City, Kansas City International Airport, MO (KMCI)

Overcast
40.0 F